默认 日期 大小 文件数 浏览量 最新下载 xml
vol.磁力链接相关资源由用户搜索指令自动获取,结果来源于网络,本站不存储任何资料,亦不承担任何责任,请于24小时内删除,搜索到267713个磁力,显示前4000条数据,用时18ms。
    {"wwCover.png": 36572, "Mazza - Summer (Klaas Mix Edit).mp3": 8626108, "Kosheen - Catch (Relanium Remix).mp3": 9880979, "Ellie Goulding - Burn (Gryffin Remix).mp3": 9894016, "Timmy Trumpet - Freaks (Original Mix).mp3": 11013676, "The Mankeys - Up & Down ( ...
创建时间: 2018-10-28 22:12:30 大小:429.73 MB 文件数量:41 热度:20 最近下载:2025-08-01 05:21:05
    {"Cover.jpg": 53949, "Herz Piano Concerto No 2 & other works.PDF": 2485081, "Herz Piano Concerto No 2 & other works.epub": 328844, "6 Herz Grande polonaise brillante, Op 30.flac": 233369919, "1 Herz Piano Concerto No 2 in C minor, Op 74 - 1 Allegro ...
创建时间: 2018-10-28 22:13:04 大小:1.02 GB 文件数量:9 热度:22 最近下载:2025-08-06 11:49:03
    {"dewiki-20170404-vol-01.slob": 4193939630, "dewiki-20170404-vol-02.slob": 855400902, "dewiki-20170404-vol.slob.sha1": 190, "If you like the work here and want to support it - donate.url": 198}
创建时间: 2018-10-28 22:13:25 大小:4.7 GB 文件数量:4 热度:11 最近下载:2023-03-26 08:00:06
    ... .MDS": 4328}, "Texhnolyze R1 DVDISO Vol 2": {"TEXHNOLYZE_VOL2.ISO": 4510158848, " ... .MDS": 4328}, "Texhnolyze R1 DVDISO Vol 3": {"TEXHNOLYZE_VOL3.ISO": 4649715712, " ... .MDS": 4328}, "Texhnolyze R1 DVDISO Vol 4": {"TEXHNOLYZE_VOL4.ISO": 4654139392, " ...
创建时间: 2018-10-28 22:14:52 大小:25.34 GB 文件数量:12 热度:24 最近下载:2025-10-09 01:56:02
    {"14. Dionigi - Heart (Original Mix).mp3": 12700785, "16. Slync - Love Proof (Original Mix).mp3": 13458342, "22. Andy Rio - Elysium (Original Mix).mp3": 15388268, "17. XLR-840 - The Light (Original Mix).mp3": 9455340, "23. Toxez - Above The ...
创建时间: 2018-10-28 22:16:25 大小:333.63 MB 文件数量:25 热度:17 最近下载:2025-03-17 10:01:54
    {"English Patch": {"afhook.pkg": 1768702, "afhook.rpo": 248320}, "CHRONICLES01.ISO": 3880747008}
创建时间: 2018-10-28 22:16:26 大小:3.62 GB 文件数量:3 热度:38 最近下载:2025-09-17 04:18:03
    ... 8646608}, "Various Artists - Absolute Blues, Vol 2": {"Various Artists - Absolute Blues ... 8765122}, "Various Artists - Absolute Blues, Vol 3": {"Various Artists - Absolute Blues ... }, "Various Artists - Absolute Blues, Vol 4": {"Various Artists - Absolute Blues ...
创建时间: 2018-10-28 22:16:26 大小:691.47 MB 文件数量:88 热度:17 最近下载:2025-05-14 18:42:01
    ... �.txt.log": 37, "Duty Vol.44 �糧�ͧ� ...
创建时间: 2018-10-28 22:17:06 大小:512.36 MB 文件数量:13 热度:65 最近下载:2025-08-22 15:52:01
    {"Alina Lopez.mp4": 455273516, "Eliza Ibarra.mp4": 471526032, "Marley Brinx.mp4": 374934094, "Natasha Nice.mp4": 301085461, "Hadley Viscara.mp4": 356360185}
创建时间: 2018-10-28 22:17:45 大小:1.82 GB 文件数量:5 热度:60 最近下载:2025-08-05 13:07:09
    {"Johnny Juliano Nexus 2 EXPANSION Vol.1.rar": 4338512}
创建时间: 2018-10-28 22:19:22 大小:4.14 MB 文件数量:1 热度:20 最近下载:2025-08-06 11:32:04
    {"cover.jpg": 23203, "metadata.opf": 1157, "Endgame Vol.1 - Jensen, Derrick.pdf": 3866307, "Endgame Vol.1 - Jensen, Derrick.epub": 680825, "Endgame Vol.1 - Jensen, Derrick.mobi": 953341}
创建时间: 2018-10-28 22:20:33 大小:5.27 MB 文件数量:5 热度:20 最近下载:2025-08-01 09:10:02
    ... Banda de Todos Os Tempos Vol.1.WWW.TORRENTDOSFILMES.COM.ISO ...
创建时间: 2018-10-28 22:21:22 大小:4.2 GB 文件数量:7 热度:16 最近下载:2025-04-14 16:34:01
    ... "Acid_Flash_vol_5_Front.jpg": 108991, "Acid Flash - Vol. 5 - CD 1.cue": 1569 ... ": 32086, "Various - Acid Flash - Vol. 5 - CD 2.cue": 1519 ... , "Various - Acid Flash - Vol. 5 - CD 2.log": 2596 ... , "Various - Acid Flash - Vol. 5 - CD 2.flac": 462137479}
创建时间: 2018-10-28 22:23:37 大小:913.05 MB 文件数量:9 热度:15 最近下载:2025-08-20 15:32:01
    {"021. ППК - Эй DJ.mp3": 11144596, "085. Refleх - Снег.mp3": 9508516, "099. Play - Megamix '99.mp3": 13054460, "047. Амега - О-О-О.mp3": 10541032, "045. Ничья - Ничья.mp3": 8397700, "007. Вирус - Мишени.mp3": 10442896, "062. Звери - Танцуй.mp3": 7872568, " ...
创建时间: 2018-10-28 22:24:00 大小:891.8 MB 文件数量:100 热度:11 最近下载:2024-08-20 23:36:02
    {"VIDEO_TS": {"VIDEO_TS.BUP": 16384, "VIDEO_TS.IFO": 16384, "VIDEO_TS.VOB": 38270976, "VTS_01_0.BUP": 104448, "VTS_01_0.IFO": 104448, "VTS_01_0.VOB": 114798592, "VTS_01_1.VOB": 1073709056, "VTS_01_2.VOB": 1073709056, "VTS_01_3.VOB": 1073709056, "VTS_01_4. ...
创建时间: 2018-10-28 22:24:45 大小:7.54 GB 文件数量:22 热度:29 最近下载:2025-04-04 16:48:02
    ... - 25 Project Pack for AE Vol.1.txt": 1036}
创建时间: 2018-10-28 22:29:03 大小:1.84 GB 文件数量:1586 热度:21 最近下载:2025-07-30 02:24:02
    {"BDMV": {"META": {"DL": {"bdmt_eng.xml": 537, "Just_Because_META_L.jpg": 49654, "Just_Because_META_S.jpg": 33665}}, "BACKUP": {"CLIPINF": {"00000.clpi": 516, "00001.clpi": 404, "00002.clpi": 412, "00003.clpi": 396, "00004.clpi": 10700, "00005.clpi": 10764 ...
创建时间: 2018-10-28 22:29:32 大小:15.39 GB 文件数量:45 热度:70 最近下载:2025-10-09 08:32:02
    {"037. Bobina - El Bimbo.mp3": 6983260, "100. Fun Factory - Hands Up.mp3": 7660419, "021. Kaaze - United (DJ Tong Edit).mp3": 10213063, "077. D.V.Project - Energy (Club Mix).mp3": 10300855, "085. J.Arie - I Am Wrong (Szp Remix).mp3": 11668595, "040. Alan ...
创建时间: 2018-10-28 22:30:45 大小:1.01 GB 文件数量:100 热度:14 最近下载:2025-05-17 04:45:01
    ... of the Galaxy Awesome Mix Vol.1 - 09 - The Runaways ... of the Galaxy Awesome Mix Vol.1 - 04 - David ... of the Galaxy Awesome Mix Vol.1 - 03 - Norman Greenbaum ... of the Galaxy Awesome Mix Vol.1 - 05 - Elvin ... of the Galaxy Awesome Mix Vol.1 - 10 - Rupert Holmes ...
创建时间: 2018-10-28 22:31:09 大小:104.82 MB 文件数量:13 热度:19 最近下载:2025-09-22 19:24:02
    {"Play.m3u": 1154, "Front.jpg": 983566, "folder.jpg": 117120, "foo_dr.txt": 1877, "Booklet.pdf": 1850017, "02 - Scherzo Op.20 No.1.flac": 164006973, "04 - Scherzo Op.31 No.2.flac": 165609445, "05 - Nocture Op.62 No.2.flac": 94530920, "06 - Scherzo Op.39 No ...
创建时间: 2018-10-28 22:34:43 大小:1.27 GB 文件数量:17 热度:25 最近下载:2025-03-19 21:47:03